, SD

(GMT )
Rapid City

Weather History for KRAP - January, 2006

Change the Weather History Date:

Monday, January 2, 2006

  Actual Average Record
Temperature  
Mean Temperature 31 °F 24 °F  
Max Temperature 45 °F 37 °F 66 °F (1998)
Min Temperature 17 °F 12 °F -16 °F (1968)
Degree Days  
Heating Degree Days 34 41  
Month to date heating degree days 71 82  
Since 1 July heating degree days 2636 2998  
Cooling Degree Days 0 0  
Month to date cooling degree days 0 0  
Year to date cooling degree days 0 0  
Moisture  
Dew Point 22 °F    
Average Humidity 79    
Maximum Humidity 100    
Minimum Humidity 58    
Precipitation  
Precipitation 0.00 in 0.01 in 0.19 in (1943)
Month to date precipitation 0.03 0.02  
Year to date precipitation 0.03 0.02  
Snow  
Snow 0.00 in 0.20 in 1.90 in (1943)
Month to date snowfall T 0.3  
Since 1 July snowfall 7.9 13.5  
Snow Depth T in    
Sea Level Pressure  
Sea Level Pressure 29.79 in    
Wind  
Wind Speed 6 mph (East)    
Max Wind Speed 18 mph    
Max Gust Speed 21 mph    
Visibility 4 miles    
Events Fog    
T = Trace of Precipitation, MM = Missing Value Source: NWS Daily Summary

Daily Weather History Graph

Daily Weather History Graph

Search for Another Location

Airport or City:

Trip Planner

Search our weather history database for the weather conditions in past years. The results will help you decide how hot, cold, wet, or windy it might be!

Date:

Astronomy

Jan. 02, 2006 Rise Set
Actual Time 7:27 AM MST 4:25 PM MST
Civil Twilight 6:54 AM MST 4:58 PM MST
Nautical Twilight 6:17 AM MST 5:34 PM MST
Astronomical Twilight 5:42 AM MST 6:10 PM MST
Moon 9:49 AM MST (1/2) 7:41 PM MST (1/2)
Length of Visible Light 10h 04m
Length of Day
8h 58m
Waxing Crescent, 10% of the Moon is Illuminated
Jan 2
Waxing Crescent
Jan 6
First Quarter
Jan 14
Full
Jan 22
Last Quarter
Jan 29
New

Hourly Weather History & Observations

Time (MST) Temp. Windchill Dew Point Humidity Pressure Visibility Wind Dir Wind Speed Gust Speed Precip Events Conditions
12:05 AM 24.8 °F - 23.0 °F 93% 29.74 in 2.0 mi Calm Calm - N/A   Clear
12:15 AM 23.0 °F - 23.0 °F 100% 29.74 in 3.0 mi Calm Calm - N/A   Clear
12:35 AM 23.0 °F - 21.2 °F 93% 29.75 in 2.5 mi Calm Calm - N/A   Clear
12:42 AM 21.2 °F - 21.2 °F 100% 29.76 in 0.8 mi Calm Calm - N/A   Mist
12:52 AM 19.9 °F - 19.9 °F 100% 29.88 in 0.5 mi Calm Calm - N/A Fog Light Freezing Fog
12:59 AM 21.2 °F - 19.4 °F 93% 29.76 in 0.2 mi Calm Calm - N/A Fog Light Freezing Fog
1:09 AM 21.2 °F - 21.2 °F 100% 29.76 in 0.8 mi Calm Calm - N/A   Mist
1:12 AM 21.2 °F - 21.2 °F 100% 29.76 in 1.2 mi Calm Calm - N/A   Scattered Clouds
1:20 AM 21.2 °F - 19.4 °F 93% 29.76 in 3.0 mi Calm Calm - N/A   Partly Cloudy
1:52 AM 19.9 °F - 18.0 °F 92% 29.90 in 5.0 mi Calm Calm - N/A   Clear
2:39 AM 21.2 °F - 19.4 °F 93% 29.78 in 1.8 mi Calm Calm - N/A   Clear
2:52 AM 19.0 °F - 18.0 °F 96% 29.90 in 0.2 mi Calm Calm - N/A Fog Light Freezing Fog
3:01 AM 19.4 °F - 17.6 °F 93% 29.78 in 0.2 mi Calm Calm - N/A Fog Light Freezing Fog
3:08 AM 21.2 °F - 19.4 °F 93% 29.77 in 0.5 mi Calm Calm - N/A Fog Light Freezing Fog
3:30 AM 17.6 °F - 15.8 °F 93% 29.78 in 0.2 mi Calm Calm - N/A Fog Light Freezing Fog
3:45 AM 19.4 °F 14.3 °F 17.6 °F 93% 29.77 in 0.5 mi NNE 3.5 mph - N/A Fog Light Freezing Fog
3:52 AM 19.0 °F - 17.1 °F 92% 29.90 in 0.5 mi Calm Calm - N/A Fog Light Freezing Fog
3:59 AM 19.4 °F 14.3 °F 17.6 °F 93% 29.78 in 1.2 mi West 3.5 mph - N/A   Scattered Clouds
4:02 AM 19.4 °F - 17.6 °F 93% 29.78 in 3.0 mi Calm Calm - N/A   Partly Cloudy
4:18 AM 19.4 °F - 17.6 °F 93% 29.78 in 1.5 mi Calm Calm - N/A   Partly Cloudy
4:23 AM 19.4 °F - 17.6 °F 93% 29.77 in 0.8 mi Calm Calm - N/A   Mist
4:39 AM 19.4 °F - 19.4 °F 100% 29.77 in 0.2 mi Calm Calm - N/A Fog Light Freezing Fog
4:52 AM 19.9 °F - 19.0 °F 96% 29.89 in 0.2 mi Calm Calm - N/A Fog Light Freezing Fog
5:19 AM 19.4 °F 12.8 °F 17.6 °F 93% 29.78 in 0.5 mi North 4.6 mph - N/A Fog Light Freezing Fog
5:30 AM 19.4 °F - 17.6 °F 93% 29.78 in 0.8 mi Calm Calm - N/A   Mist
5:42 AM 19.4 °F - 17.6 °F 93% 29.79 in 0.2 mi Calm Calm - N/A Fog Light Freezing Fog
5:52 AM 19.9 °F - 17.1 °F 89% 29.90 in 0.5 mi Calm Calm - N/A Fog Light Freezing Fog
6:06 AM 19.4 °F - 17.6 °F 93% 29.78 in 1.2 mi Calm Calm - N/A   Scattered Clouds
6:09 AM 19.4 °F - 17.6 °F 93% 29.78 in 4.0 mi Calm Calm - N/A   Scattered Clouds
6:52 AM 19.0 °F - 17.1 °F 92% 29.90 in 10.0 mi Calm Calm - N/A   Clear
7:52 AM 23.0 °F - 19.9 °F 88% 29.87 in 10.0 mi Calm Calm - N/A   Clear
8:33 AM 19.4 °F 9.5 °F 17.6 °F 93% 29.78 in 0.5 mi WSW 8.1 mph - N/A   Mist
8:40 AM 17.6 °F 10.7 °F 15.8 °F 93% 29.78 in 0.2 mi SSW 4.6 mph - N/A Fog Light Freezing Fog
8:44 AM 19.4 °F - 17.6 °F 93% 29.78 in 0.2 mi Calm Calm - N/A Fog Light Freezing Fog
8:52 AM 19.9 °F - 18.0 °F 92% 29.89 in 0.2 mi Calm Calm - N/A Fog Light Freezing Fog
9:10 AM 24.8 °F 20.5 °F 23.0 °F 93% 29.78 in 1.0 mi ESE 3.5 mph - N/A   Mist
9:25 AM 26.6 °F 20.0 °F 24.8 °F 93% 29.77 in 1.2 mi ENE 5.8 mph - N/A   Partly Cloudy
9:36 AM 26.6 °F 19.1 °F 24.8 °F 93% 29.77 in 3.0 mi ENE 6.9 mph - N/A   Clear
9:52 AM 28.0 °F 20.8 °F 26.1 °F 92% 29.86 in 10.0 mi SE 6.9 mph - N/A   Clear
10:52 AM 30.0 °F 26.5 °F 28.0 °F 92% 29.86 in 10.0 mi SE 3.5 mph - N/A   Clear
11:52 AM 32.0 °F 24.8 °F 30.9 °F 96% 29.81 in 10.0 mi ESE 8.1 mph - N/A   Clear
12:52 PM 35.1 °F 26.9 °F 32.0 °F 89% 29.79 in 10.0 mi ESE 11.5 mph - N/A   Clear
1:52 PM 37.9 °F 30.5 °F 33.1 °F 83% 29.78 in 10.0 mi ESE 11.5 mph - 0.01 in   Clear
2:52 PM 42.1 °F 34.9 °F 32.0 °F 67% 29.77 in 10.0 mi ESE 13.8 mph - N/A   Clear
3:52 PM 44.6 °F 37.4 °F 30.2 °F 57% 29.68 in 10.0 mi SSE 16.1 mph - N/A   Clear
4:52 PM 41.0 °F 33.5 °F 28.9 °F 62% 29.77 in 10.0 mi South 13.8 mph - N/A   Clear
5:52 PM 39.0 °F 34.0 °F 28.0 °F 65% 29.77 in 10.0 mi SE 6.9 mph - N/A   Clear
6:52 PM 36.0 °F 32.1 °F 27.0 °F 70% 29.77 in 10.0 mi ENE 4.6 mph - N/A   Clear
7:52 PM 37.0 °F 33.3 °F 28.0 °F 70% 29.75 in 10.0 mi ENE 4.6 mph - N/A   Clear
8:52 PM 37.4 °F 32.8 °F 26.6 °F 65% 29.69 in 10.0 mi North 5.8 mph - N/A   Clear
9:52 PM 37.0 °F 28.5 °F 27.0 °F 67% 29.77 in 10.0 mi North 13.8 mph - N/A   Clear
10:52 PM 36.0 °F 27.1 °F 28.0 °F 73% 29.76 in 10.0 mi North 13.8 mph - N/A   Partly Cloudy
11:52 PM 33.1 °F 25.5 °F 26.1 °F 75% 29.75 in 10.0 mi WNW 9.2 mph - N/A   Clear